Weather History for KPSP - November, 2012

Change the Weather History Date:

Saturday, November 24, 2012

  Actual Average Record
Temperature  
Mean Temperature 72 °F 61 °F  
Max Temperature 87 °F 73 °F 93 °F (1933)
Min Temperature 57 °F 49 °F 34 °F (1931)
Degree Days  
Heating Degree Days 0 5  
Month to date heating degree days 34 56  
Since 1 July heating degree days 34 60  
Cooling Degree Days 7 1  
Month to date cooling degree days 107 72  
Year to date cooling degree days 4696 4134  
Growing Degree Days 22 (Base 50)    
Moisture  
Dew Point 26 °F    
Average Humidity 19    
Maximum Humidity 28    
Minimum Humidity 10    
Precipitation  
Precipitation 0.00 in 0.02 in 0.90 in (1978)
Month to date precipitation T 0.38  
Year to date precipitation 1.82 4.71  
Since 1 July precipitation 1.03 1.77  
Snow  
Snow 0.00 in - - ()
Month to date snowfall 0.0  
Year to date snowfall 0.0  
Since 1 July snowfall 0.0  
Snow Depth 0.00 in    
Sea Level Pressure  
Sea Level Pressure 30.00 in    
Wind  
Wind Speed 5 mph (NNW)    
Max Wind Speed 10 mph    
Max Gust Speed 12 mph    
Visibility 10 miles    
Events      
T = Trace of Precipitation, MM = Missing Value Source: NWS Daily Summary

Daily Weather History Graph

Daily Weather History Graph

Search for Another Location

Airport or City:

Trip Planner

Search our weather history database for the weather conditions in past years. The results will help you decide how hot, cold, wet, or windy it might be!

Date:

Astronomy

Nov. 24, 2012 Rise Set
Actual Time 6:27 AM PST 4:38 PM PST
Civil Twilight 6:00 AM PST 5:05 PM PST
Nautical Twilight 5:29 AM PST 5:36 PM PST
Astronomical Twilight 4:59 AM PST 6:05 PM PST
Moon 2:18 PM PST (11/24) 2:56 AM PST (11/24)
Length of Visible Light 11h 05m
Length of Day
10h 11m
Waxing Gibbous, 88% of the Moon is Illuminated
Nov 24
Waxing Gibbous
Nov 28
Full
Dec 6
Last Quarter
Dec 13
New
Dec 19
First Quarter

Hourly Weather History & Observations

Time (PST) Temp. Dew Point Humidity Pressure Visibility Wind Dir Wind Speed Gust Speed Precip Events Conditions
12:53 AM 62.1 °F 25.0 °F 24% 30.09 in 10.0 mi NNW 9.2 mph - N/A   Clear
1:53 AM 61.0 °F 27.0 °F 27% 30.09 in 10.0 mi NNW 5.8 mph - N/A   Clear
2:53 AM 59.0 °F 24.1 °F 26% 30.07 in 10.0 mi NNW 8.1 mph - N/A   Clear
3:53 AM 59.0 °F 25.0 °F 27% 30.06 in 10.0 mi NNW 8.1 mph - N/A   Clear
4:53 AM 57.9 °F 25.0 °F 28% 30.07 in 10.0 mi NNW 5.8 mph - N/A   Clear
5:53 AM 63.0 °F 21.9 °F 21% 30.07 in 10.0 mi NNW 6.9 mph - N/A   Clear
6:53 AM 60.1 °F 21.9 °F 23% 30.08 in 10.0 mi NNW 6.9 mph - N/A   Clear
7:53 AM 64.0 °F 25.0 °F 23% 30.09 in 10.0 mi NNW 5.8 mph - N/A   Clear
8:53 AM 73.0 °F 27.0 °F 18% 30.08 in 10.0 mi North 3.5 mph - N/A   Clear
9:53 AM 78.1 °F 26.1 °F 15% 30.07 in 10.0 mi Calm Calm - N/A   Clear
10:53 AM 82.0 °F 26.1 °F 13% 30.05 in 10.0 mi Calm Calm - N/A   Clear
11:53 AM 84.0 °F 21.9 °F 10% 30.01 in 10.0 mi Calm Calm - N/A   Clear
12:53 PM 84.9 °F 21.0 °F 10% 29.97 in 10.0 mi East 3.5 mph - N/A   Clear
1:53 PM 86.0 °F 25.0 °F 11% 29.95 in 10.0 mi ESE 5.8 mph - N/A   Clear
2:53 PM 84.9 °F 26.1 °F 12% 29.94 in 10.0 mi ESE 5.8 mph - N/A   Clear
3:53 PM 82.9 °F 27.0 °F 13% 29.93 in 10.0 mi SE 3.5 mph - N/A   Clear
4:53 PM 78.1 °F 35.1 °F 21% 29.93 in 10.0 mi Calm Calm - N/A   Clear
5:53 PM 73.9 °F 32.0 °F 21% 29.93 in 10.0 mi Calm Calm - N/A   Clear
6:53 PM 70.0 °F 26.1 °F 19% 29.94 in 10.0 mi NW 4.6 mph - N/A   Clear
7:53 PM 69.1 °F 25.0 °F 19% 29.94 in 10.0 mi NW 6.9 mph - N/A   Clear
8:53 PM 66.9 °F 26.1 °F 21% 29.94 in 10.0 mi NW 6.9 mph - N/A   Clear
9:53 PM 66.0 °F 26.1 °F 22% 29.94 in 10.0 mi NNW 6.9 mph - N/A   Clear
10:53 PM 63.0 °F 27.0 °F 26% 29.93 in 10.0 mi NW 8.1 mph - N/A   Clear
11:53 PM 63.0 °F 27.0 °F 26% 29.92 in 10.0 mi NNW 6.9 mph - N/A   Clear